COSMOS 2251 DEB, 36559

Orbit data source: Space-Track

COSMOS 2251 DEB, 36559 is space debris in LEO originally from a launch on Wed, 16 Jun 1993 UTC launched from the Plesetsk Missile And Space Complex (PKMTR). The debris from Iridium 33, an American commercial communications satellite, has been tracked extensively since its accidental collision with the defunct Russian satellite Cosmos 2251 in 2009. This event, occurring at high speed in low Earth orbit (LEO), generated thousands of pieces of space debris, significantly increasing the risk of further collisions. The Iridium 33 debris cloud has impacted space traffic management and orbital debris mitigation strategies, making it a subject of ongoing study in space situational awareness.

Loading next visibility...
Identifier
36559, 1993-036BDV
Orbit
LEO
Country
Flag of CISCIS
Related business
Manufacturer
Unknown
Mission
Spacecraft
Bus & Motor
Unknown
Mass
Unknown
Launch date (UTC)
1993-06-16 (33 years ago)
Launch vehicle
Unknown
Launch site
Plesetsk Missile And Space Complex (PKMTR)
Object type
Payload
Rocket body
Debris
Shape & HBR
Unknown shape, 1.1 m
Radar Cross Section
Small (<0.1 m²)

Expand to show TLE details & history
Last TLE update: 15 hours ago

TLE from 15 hours ago
0 COSMOS 2251 DEB
1 36559U 93036BDV 26123.45291085  .00003490  00000-0  18903-2 0  9996
2 36559  74.1249 127.1176 0257479 127.4505 235.0356 13.97296612830720
Epoch: 2026-05-03T10:52Z
TLE epoch observation values (Epoch: 2026-05-03T10:52:11.497Z)
Latitude
-0.00005°
Longitude
102.71343°
Altitude
1,016.372 km
Speed
7.288 km/s
True Right ascension
08h 28m 28s
True Declination
0° 00' 00"
Sunlit
Object was in daylight at epoch
Visualization orbit readout
Latitude
Unknown
Longitude
Unknown
Altitude
Unknown
Speed
Unknown
Apparent Right ascension
Unknown
Apparent Declination
Unknown
Sunlit
N/A
Visualization observer readout
Local Sidereal Time
09:33:22
Azimuth
Unknown
Elevation
Unknown
Doppler factor
Unknown
Orbital elements
Apogee altitude
1,088.247 km
Perigee altitude
713.411 km
Semi-major axis
7,278.966 km
Eccentricity
0.02575
Inclination
74.1249°
RAAN
127.1176°
Arg. of periapsis
127.4505°
True anomaly
232.66214°
Mean anomaly
235.0356°
Eccentric anomaly
233.84446°
Mean motion
3.49493 °/min
Orbital period
103.01 mins
BSTAR
0.0018903
Loading maneuver chart data...
Computing Atmospheric mass density...
Loading historical data...
Loading historical data...
Loading historical data...
Loading historical data...
Loading historical data...
Loading historical data...
Loading historical data...

Documentation

Showing up to 5 results
|